Lawton, OK

7:16 PM CDT on July 25, 2017 (GMT -0500)
Lawton-Fort Sill Regional

Weather History for KLAW - March, 2013

Change the Weather History Date:

Sunday, March 3, 2013

  Actual Average Record
Temperature  
Mean Temperature 52 °F -  
Max Temperature 77 °F 63 °F 86 °F (1955)
Min Temperature 28 °F 35 °F 8 °F (2014)
Degree Days  
Heating Degree Days 12    
Growing Degree Days 2 (Base 50)    
Moisture  
Dew Point 31 °F    
Average Humidity 51    
Maximum Humidity 89    
Minimum Humidity 17    
Precipitation  
Precipitation 0.00 in - - ()
Sea Level Pressure  
Sea Level Pressure 29.88 in    
Wind  
Wind Speed 6 mph (SSE)    
Max Wind Speed 22 mph    
Max Gust Speed 31 mph    
Visibility 10 miles    
Events      
Averages and records for this station are not official NWS values.
T = Trace of Precipitation, MM = Missing Value Source: NWS Daily Summary

Daily Weather History Graph

Daily Weather History Graph

Search for Another Location

Airport or City:

Trip Planner

Search our weather history database for the weather conditions in past years. The results will help you decide how hot, cold, wet, or windy it might be!

Date:

Astronomy

Mar. 03, 2013 Rise Set
Actual Time 6:59 AM CST 6:31 PM CST
Civil Twilight 6:34 AM CST 6:56 PM CST
Nautical Twilight 6:05 AM CST 7:26 PM CST
Astronomical Twilight 5:36 AM CST 7:55 PM CST
Moon No Moon Rise 10:32 AM CST (3/3)
Length of Visible Light 12h 22m
Length of Day
11h 31m
Waning Gibbous, 63% of the Moon is Illuminated
Mar 3
Waning Gibbous
Mar 4
Last Quarter
Mar 11
New
Mar 19
First Quarter
Mar 27
Full

Hourly Weather History & Observations

Time (CST) Temp. Windchill Dew Point Humidity Pressure Visibility Wind Dir Wind Speed Gust Speed Precip Events Conditions
12:53 AM 33.1 °F - 28.9 °F 85% 30.19 in 10.0 mi Calm Calm - N/A   Clear
1:53 AM 32.0 °F - 28.9 °F 88% 30.19 in 10.0 mi Calm Calm - N/A   Clear
2:53 AM 32.0 °F 28.7 °F 28.9 °F 88% 30.15 in 10.0 mi ENE 3.5 mph - N/A   Clear
3:53 AM 34.0 °F 29.8 °F 28.9 °F 82% 30.12 in 10.0 mi East 4.6 mph - N/A   Clear
4:53 AM 32.0 °F - 28.0 °F 85% 30.11 in 10.0 mi Calm Calm - N/A   Clear
6:53 AM 28.9 °F - 26.1 °F 89% 30.08 in 10.0 mi Calm Calm - N/A   Clear
7:53 AM 33.1 °F - 30.0 °F 89% 30.08 in 10.0 mi Calm Calm - N/A   Clear
8:53 AM 42.1 °F 37.1 °F 32.0 °F 67% 30.07 in 10.0 mi SSE 8.1 mph - N/A   Clear
9:53 AM 48.9 °F - 34.0 °F 56% 30.03 in 10.0 mi South 8.1 mph - N/A   Clear
10:53 AM 55.0 °F - 36.0 °F 49% 30.00 in 10.0 mi South 11.5 mph - N/A   Clear
11:53 AM 63.0 °F - 35.1 °F 35% 29.95 in 10.0 mi SSW 11.5 mph 17.3 mph N/A   Clear
12:53 PM 66.9 °F - 37.0 °F 33% 29.89 in 10.0 mi SSE 13.8 mph 23.0 mph N/A   Clear
1:53 PM 73.0 °F - 36.0 °F 26% 29.81 in 10.0 mi SSE 20.7 mph 27.6 mph N/A   Clear
2:53 PM 75.9 °F - 30.0 °F 19% 29.76 in 10.0 mi South 16.1 mph 27.6 mph N/A   Clear
3:53 PM 77.0 °F - 28.0 °F 17% 29.72 in 10.0 mi South 21.9 mph 31.1 mph N/A   Clear
4:53 PM 77.0 °F - 28.9 °F 17% 29.70 in 10.0 mi South 20.7 mph 28.8 mph N/A   Clear
5:53 PM 71.1 °F - 32.0 °F 24% 29.68 in 10.0 mi SSE 12.7 mph - N/A   Clear
6:53 PM 66.9 °F - 33.1 °F 28% 29.66 in 10.0 mi SSE 13.8 mph - N/A   Clear
7:53 PM 66.0 °F - 30.9 °F 27% 29.65 in 10.0 mi SSE 15.0 mph - N/A   Clear
8:53 PM 64.0 °F - 30.0 °F 28% 29.64 in 10.0 mi SSE 12.7 mph - N/A   Clear
9:53 PM 55.0 °F - 34.0 °F 45% 29.64 in 10.0 mi SE 6.9 mph - N/A   Clear
10:53 PM 55.0 °F - 33.1 °F 43% 29.62 in 10.0 mi SE 8.1 mph - N/A   Clear
11:53 PM 53.1 °F - 32.0 °F 45% 29.61 in 10.0 mi Calm Calm - N/A   Clear